Back to catalog

KUIPER-00214

AliveCommunicationsLEO
NORAD 67778·PAYLOAD·🇺🇸 United States

Launched Feb 12, 2026 from Guiana Space Centre

Loading…

Next Passes (next 24 hours)

TLE

FreshSource: CelesTrak SupGP

Epoch: Sep 14, 2026, 14:59 UTC

1 67778C 26030Q   26257.62443287 -.00002127  00000+0 -27846-3 0  2574
2 67778  51.8986  87.7225 0000712 106.1071 144.8780 14.79922921    10

Track KUIPER-00214 in real time with AllMySat

Download on the App Store